Date String (YYYY-MM-DD hh:mm:ss) UTC,Instrument flags,absolute air pressure of the measurement (hPa),sample flow rate (lpm),inlet stack bypass flow (lpm),air temperature of the measurement (°C),ambient temperature measured by the external sensor (°C),aerosol sample conditioner tube jacket temperature (°C),OPC LED temperature (°C),internal box temperature (°C),relative humidity of the measurement (%),span deviation,mass concentration of particles derived from Lorenz-Mie calculation of OPC scattering (μg/m³),mass concentration of particles derived from Lorenz-Mie calculation of OPC scattering (μg/m³),mass concentration of particles derived from Lorenz-Mie calculation of OPC scattering (μg/m³)
DateTimeUTC,F1_M11,P_M11,Q1_M11,Q2_M11,T1_M11,T2_M11,T3_M11,T4_M11,T5_M11,U1_M11,ZSPAN_M11,X2_M11,X0_M11,X1_M11
2023-09-19 13:00:00,SystemResetWarning,0828.2,5.01,000.00,028.7,027.2,000.0,037.0,030.3,16.7,0000.0,0001.51,0002.23,0001.27
2023-09-19 13:01:00,SystemResetWarning,0828.2,5.00,000.00,028.7,027.2,000.0,037.0,030.3,16.6,0000.0,0001.50,0002.12,0001.27
2023-09-19 13:02:00,SystemResetWarning,0828.2,5.00,000.00,028.7,027.2,000.0,037.0,030.4,16.6,0000.0,0001.54,0002.14,0001.29
2023-09-19 13:03:00,SystemResetWarning,0828.2,5.00,000.00,028.7,027.3,000.0,037.0,030.3,16.6,0000.0,0001.54,0002.16,0001.29
2023-09-19 13:04:00,SystemResetWarning,0828.2,5.00,000.00,028.7,027.3,000.0,037.0,030.3,16.6,0000.0,0001.55,0002.18,0001.29
2023-09-19 13:05:00,SystemResetWarning,0828.2,5.00,000.00,028.8,027.3,000.0,037.0,030.4,16.7,0000.0,0001.60,0002.30,0001.31
2023-09-19 13:06:00,SystemResetWarning,0828.2,5.00,000.00,028.8,027.3,000.0,037.0,030.4,16.7,0000.0,0001.61,0002.35,0001.32
2023-09-19 13:07:00,SystemResetWarning,0828.2,5.00,000.00,028.8,027.3,000.0,037.1,030.4,16.6,0000.0,0001.59,0002.41,0001.32
2023-09-19 13:08:00,SystemResetWarning,0828.2,5.00,000.00,028.8,027.3,000.0,037.1,030.4,16.6,0000.0,0001.61,0002.50,0001.33
2023-09-19 13:09:00,SystemResetWarning,0828.3,5.00,000.00,028.8,027.3,000.0,037.1,030.4,16.6,0000.0,0001.60,0002.44,0001.34
2023-09-19 13:10:00,SystemResetWarning,0828.3,5.00,000.00,028.8,027.3,000.0,037.1,030.4,16.6,0000.0,0001.59,0002.30,0001.33
2023-09-19 13:11:00,SystemResetWarning,0828.3,5.00,000.00,028.8,027.3,000.0,037.1,030.4,16.5,0000.0,0001.58,0002.27,0001.33
2023-09-19 13:12:00,SystemResetWarning,0828.3,5.00,000.00,028.8,027.3,000.0,037.1,030.4,16.4,0000.0,0001.60,0002.32,0001.34
2023-09-19 13:13:00,SystemResetWarning,0828.3,5.00,000.00,028.8,027.3,000.0,037.1,030.4,16.4,0000.0,0001.60,0002.30,0001.34
2023-09-19 13:14:00,SystemResetWarning,0828.2,4.98,000.00,028.8,026.0,000.0,037.1,030.1,16.4,0000.0,0001.59,0002.30,0001.34
2023-09-19 13:15:00,SystemResetWarning,0828.2,5.01,000.00,028.6,024.6,000.0,037.0,029.8,16.6,0000.0,0001.61,0002.32,0001.35
2023-09-19 13:16:00,SystemResetWarning,0828.2,5.01,000.00,028.5,024.5,000.0,037.0,029.7,16.7,0000.0,0001.60,0002.28,0001.35
2023-09-19 13:17:00,SystemResetWarning,0828.3,5.00,000.00,028.4,024.7,000.0,036.9,029.6,16.8,0000.0,0001.61,0002.34,0001.35
2023-09-19 13:18:00,SystemResetWarning,0828.3,5.00,000.00,028.4,025.0,000.0,036.9,029.7,16.9,0000.0,0001.66,0002.43,0001.36
2023-09-19 13:19:00,SystemResetWarning,0828.3,5.01,000.00,028.3,025.3,000.0,036.9,029.7,17.0,0000.0,0001.68,0002.97,0001.35
2023-09-19 13:20:00,SystemResetWarning,0828.3,5.00,000.00,028.3,025.6,000.0,036.8,029.7,17.0,0000.0,0001.70,0003.02,0001.35
2023-09-19 13:21:00,SystemResetWarning,0828.3,5.00,000.00,028.3,025.8,000.0,036.8,029.7,17.0,0000.0,0001.72,0003.05,0001.36
2023-09-19 13:22:00,SystemResetWarning,0828.3,5.00,000.00,028.3,026.0,000.0,036.8,029.7,16.9,0000.0,0001.70,0003.02,0001.35
2023-09-19 13:23:00,SystemResetWarning,0828.3,5.00,000.00,028.3,026.2,000.0,036.8,029.7,17.0,0000.0,0001.67,0002.99,0001.35
2023-09-19 13:24:00,SystemResetWarning,0828.4,5.00,000.00,028.3,026.3,000.0,036.8,029.8,17.0,0000.0,0001.68,0003.08,0001.34
2023-09-19 13:25:00,SystemResetWarning,0828.4,4.99,000.00,028.3,026.4,000.0,036.7,029.8,17.0,0000.0,0001.69,0003.10,0001.34
2023-09-19 13:26:00,SystemResetWarning,0828.4,4.99,000.00,028.3,026.5,000.0,036.7,029.8,17.0,0000.0,0001.71,0003.15,0001.34
2023-09-19 13:27:00,SystemResetWarning,0828.4,5.00,000.00,028.3,026.6,000.0,036.7,029.9,16.9,0000.0,0001.70,0003.22,0001.33
2023-09-19 13:28:00,SystemResetWarning,0828.4,5.01,000.00,028.3,026.7,000.0,036.7,029.9,17.0,0000.0,0001.72,0004.06,0001.34
2023-09-19 13:29:00,SystemResetWarning,0828.4,5.00,000.00,028.3,026.7,000.0,036.7,029.9,17.0,0000.0,0001.71,0003.94,0001.34
2023-09-19 13:30:00,SystemResetWarning,0828.4,5.00,000.00,028.3,026.8,000.0,036.7,029.9,16.9,0000.0,0001.70,0003.41,0001.35
2023-09-19 13:31:00,SystemResetWarning,0828.4,5.00,000.00,028.3,026.8,000.0,036.7,029.9,17.1,0000.0,0001.70,0003.38,0001.35
2023-09-19 13:32:00,SystemResetWarning,0828.4,5.00,000.00,028.3,026.9,000.0,036.7,029.9,17.0,0000.0,0001.72,0003.55,0001.34
2023-09-19 13:33:00,SystemResetWarning,0828.4,5.00,000.00,028.4,026.9,000.0,036.7,030.0,16.9,0000.0,0001.76,0004.19,0001.35
2023-09-19 13:34:00,SystemResetWarning,0828.4,5.00,000.00,028.4,026.9,000.0,036.7,030.0,16.8,0000.0,0001.77,0004.33,0001.37
2023-09-19 13:35:00,SystemResetWarning,0828.4,5.01,000.00,028.4,026.9,000.0,036.7,030.0,16.8,0000.0,0001.76,0004.25,0001.37
2023-09-19 13:36:00,SystemResetWarning,0828.4,5.00,000.00,028.4,027.0,000.0,036.7,030.0,16.8,0000.0,0001.79,0004.30,0001.37
2023-09-19 13:37:00,SystemResetWarning,0828.4,5.00,000.00,028.4,027.0,000.0,036.7,030.1,16.8,0000.0,0001.82,0004.42,0001.37
2023-09-19 13:38:00,SystemResetWarning,0828.5,5.00,000.00,028.4,027.0,000.0,036.7,030.1,16.9,0000.0,0001.81,0004.29,0001.37
2023-09-19 13:39:00,SystemResetWarning,0828.5,5.00,000.00,028.4,027.0,000.0,036.7,030.1,16.8,0000.0,0001.77,0003.38,0001.36
2023-09-19 13:40:00,SystemResetWarning,0828.5,5.00,000.00,028.5,027.1,000.0,036.8,030.1,16.8,0000.0,0001.76,0003.36,0001.35
2023-09-19 13:41:00,SystemResetWarning,0828.5,5.00,000.00,028.5,027.1,000.0,036.8,030.2,17.0,0000.0,0001.79,0003.37,0001.36
2023-09-19 13:42:00,SystemResetWarning,0828.6,4.99,000.00,028.5,027.1,000.0,036.8,030.2,17.0,0000.0,0001.77,0003.35,0001.35
2023-09-19 13:43:00,SystemResetWarning,0828.6,5.00,000.00,028.5,027.2,000.0,036.8,030.2,16.9,0000.0,0001.77,0003.28,0001.36
2023-09-19 13:44:00,SystemResetWarning,0828.6,5.00,000.00,028.6,027.2,000.0,036.8,030.2,16.8,0000.0,0001.79,0002.75,0001.37
2023-09-19 13:45:00,SystemResetWarning,0828.6,5.00,000.00,028.6,027.2,000.0,036.8,030.3,16.9,0000.0,0001.77,0002.75,0001.36
2023-09-19 13:46:00,SystemResetWarning,0828.6,5.00,000.00,028.6,027.3,000.0,036.8,030.3,16.9,0000.0,0001.78,0002.79,0001.36
2023-09-19 13:47:00,SystemResetWarning,0828.7,4.99,000.00,028.6,027.3,000.0,036.8,030.3,17.0,0000.0,0001.74,0002.71,0001.36
2023-09-19 13:48:00,SystemResetWarning,0828.6,5.00,000.00,028.6,027.3,000.0,036.9,030.3,17.0,0000.0,0001.67,0002.52,0001.35
2023-09-19 13:49:00,SystemResetWarning,0828.6,5.01,000.00,028.6,027.4,000.0,036.9,030.4,17.3,0000.0,0001.69,0002.57,0001.36
2023-09-19 13:50:00,SystemResetWarning,0828.7,5.01,000.00,028.7,027.4,000.0,036.9,030.4,17.8,0000.0,0001.71,0002.96,0001.36
2023-09-19 13:51:00,SystemResetWarning,0828.7,5.00,000.00,028.7,027.4,000.0,036.9,030.4,17.4,0000.0,0001.70,0003.56,0001.35
2023-09-19 13:52:00,SystemResetWarning,0828.7,4.98,000.00,028.7,026.9,000.0,036.9,030.3,17.5,0000.0,0001.67,0003.53,0001.35
2023-09-19 13:53:00,SystemResetWarning,0828.7,5.00,000.00,028.6,025.2,000.0,036.9,029.8,17.5,0000.0,0001.68,0003.62,0001.34
2023-09-19 13:54:00,SystemResetWarning,0828.7,5.00,000.00,028.5,024.6,000.0,036.8,029.7,17.5,0000.0,0001.65,0003.58,0001.34
2023-09-19 13:55:00,SystemResetWarning,0828.6,5.01,000.00,028.4,024.8,000.0,036.8,029.6,17.5,0000.0,0001.62,0003.52,0001.32
2023-09-19 13:56:00,SystemResetWarning,0828.7,5.00,000.00,028.3,025.1,000.0,036.8,029.6,17.5,0000.0,0001.60,0003.25,0001.32
2023-09-19 13:57:00,SystemResetWarning,0828.7,5.00,000.00,028.3,025.4,000.0,036.8,029.7,17.8,0000.0,0001.60,0003.36,0001.33
2023-09-19 13:58:00,SystemResetWarning,0828.7,5.00,000.00,028.3,025.7,000.0,036.8,029.7,17.9,0000.0,0001.67,0004.12,0001.34
2023-09-19 13:59:00,SystemResetWarning,0828.7,5.00,000.00,028.3,025.9,000.0,036.8,029.8,18.2,0000.0,0001.70,0004.17,0001.34
